Flight Track Log - Related Links

Times and Time Zones

All times are in EDT time to prevent confusion due to time zone crossing. See the SWG26 flight status page for this flight to view local times or setup timezone preferences in your user account.

Time Position Orientation Groundspeed Altitude Reporting Facility
EDT Latitude Longitude Course Direction KTS MPH feet Rate Location/Type
Fri 06:54:13 AM 43.6747 -79.5980 47° Northeast 158 182 1,100  Level FlightAware ADS-B (CYYZ)
Fri 06:54:16 AM 43.6769 -79.5947 47° Northeast 156 180 1,300 3,600 Climbing FlightAware ADS-B (EPLB / LUZ)
Fri 06:54:28 AM 43.6816 -79.5881 43° Northeast 152 175 2,000 2,000 Climbing FlightAware ADS-B (CYYZ)
Fri 06:54:43 AM 43.6908 -79.5766 41° Northeast 173 199 2,200 857 Climbing FlightAware ADS-B (CYYZ)
Fri 06:54:49 AM 43.6933 -79.5736 41° Northeast 182 209 2,300 1,200 Climbing FlightAware ADS-B (EPLB / LUZ)
Fri 06:54:58 AM 43.7008 -79.5647 41° Northeast 196 226 2,500 947 Climbing FlightAware ADS-B (CYYZ)
Fri 06:55:08 AM 43.7082 -79.5557 42° Northeast 210 242 2,600 800 Climbing FlightAware ADS-B (EPLB / LUZ)
Fri 06:55:13 AM 43.7112 -79.5519 41° Northeast 214 246 2,700 2,100 Climbing FlightAware ADS-B (CYYZ)
Fri 06:55:28 AM 43.7223 -79.5379 43° Northeast 222 255 3,300 2,250 Climbing FlightAware ADS-B (CYYZ)
Fri 06:55:29 AM 43.7228 -79.5374 43° Northeast 224 258 3,300 2,143 Level FlightAware ADS-B (EPLB / LUZ)
Fri 06:55:42 AM 43.7340 -79.5225 44° Northeast 232 267 3,800 1,875 Climbing FlightAware ADS-B (CYYZ)
Fri 06:55:45 AM 43.7320 -79.5252 44° Northeast 230 265 3,800 1,125 Level FlightAware ADS-B (CYKF)
Fri 06:55:58 AM 43.7449 -79.5051 59° Northeast 247 284 4,100 1,600 Climbing FlightAware ADS-B (CYYZ)
Fri 06:56:00 AM 43.7462 -79.5018 66° East 249 287 4,200 1,500 Climbing FlightAware ADS-B (EPLB / LUZ)
Fri 06:56:02 AM 43.7473 -79.4981 69° East 250 288 4,200 1,714 Level FlightAware ADS-B (CYYZ)
Fri 06:56:07 AM 43.7487 -79.4902 78° East 250 288 4,400 1,800 Climbing FlightAware ADS-B (CYYZ)
Fri 06:56:12 AM 43.7490 -79.4822 91° East 250 288 4,500 1,800 Climbing FlightAware ADS-B (CYYZ)
Fri 06:56:17 AM 43.7484 -79.4747 101° East 251 289 4,700 3,000 Climbing FlightAware ADS-B (CYYZ)
Fri 06:56:20 AM 43.7478 -79.4716 109° East 249 287 4,900 3,600 Climbing FlightAware ADS-B (EPLB / LUZ)
Fri 06:56:22 AM 43.7466 -79.4672 113° Southeast 247 284 5,000 3,429 Climbing FlightAware ADS-B (CYYZ)
Fri 06:56:27 AM 43.7440 -79.4604 121° Southeast 243 280 5,300 3,000 Climbing FlightAware ADS-B (CYYZ)
Fri 06:56:32 AM 43.7404 -79.4541 131° Southeast 242 278 5,500 3,000 Climbing FlightAware ADS-B (CYYZ)
Fri 06:56:37 AM 43.7367 -79.4489 136° Southeast 241 277 5,800 3,000 Climbing FlightAware ADS-B (CYYZ)
Fri 06:56:40 AM 43.7343 -79.4459 139° Southeast 241 277 5,900 2,400 Climbing FlightAware ADS-B (EPLB / LUZ)
Fri 06:56:42 AM 43.7323 -79.4436 141° Southeast 240 276 6,000 3,429 Climbing FlightAware ADS-B (CYYZ)
Fri 06:56:47 AM 43.7277 -79.4395 150° Southeast 240 276 6,300 3,000 Climbing FlightAware ADS-B (CYYZ)
Fri 06:56:52 AM 43.7224 -79.4363 161° South 240 276 6,500 2,182 Climbing FlightAware ADS-B (CYYZ)
Fri 06:56:58 AM 43.7168 -79.4343 170° South 242 278 6,700 2,182 Climbing FlightAware ADS-B (CYYZ)
Fri 06:57:03 AM 43.7113 -79.4336 177° South 246 283 6,900 1,600 Climbing FlightAware ADS-B (CYYZ)
Fri 06:57:13 AM 43.7002 -79.4334 180° South 251 289 7,100 800 Climbing FlightAware ADS-B (EPLB / LUZ)
Fri 06:57:18 AM 43.6941 -79.4335 181° South 253 291 7,100  Level FlightAware ADS-B (CYYZ)
Fri 06:57:32 AM 43.6768 -79.4336 180° South 253 291 7,100  Level FlightAware ADS-B (EPLB / LUZ)
Fri 06:57:37 AM 43.6706 -79.4336 180° South 252 290 7,100  Level FlightAware ADS-B (CYYZ)
Fri 06:57:53 AM 43.6534 -79.4336 180° South 252 290 7,100  Level FlightAware ADS-B (EPLB / LUZ)
Fri 06:57:57 AM 43.6478 -79.4336 181° South 251 289 7,100  Level FlightAware ADS-B (CYYZ)
Fri 06:58:17 AM 43.6241 -79.4338 181° South 253 291 7,100  Level FlightAware ADS-B (CYYZ)
Fri 06:58:29 AM 43.6126 -79.4338 180° South 254 292 7,100  Level FlightAware ADS-B (EPLB / LUZ)
Fri 06:58:38 AM 43.6004 -79.4341 183° South 253 291 7,100  Level FlightAware ADS-B (CYYZ)
Fri 06:58:42 AM 43.5947 -79.4349 189° South 253 291 7,100  Level FlightAware ADS-B (CYYZ)
Fri 06:58:48 AM 43.5893 -79.4365 194° South 254 292 7,100  Level FlightAware ADS-B (CYYZ)
Fri 06:58:52 AM 43.5836 -79.4390 201° Southwest 254 292 7,100  Level FlightAware ADS-B (CYYZ)
Fri 06:58:58 AM 43.5781 -79.4424 207° Southwest 254 292 7,100  Level FlightAware ADS-B (CYYZ)
Fri 06:59:03 AM 43.5734 -79.4460 212° Southwest 256 295 7,100  Level FlightAware ADS-B (CYYZ)
Fri 06:59:08 AM 43.5679 -79.4512 217° Southwest 256 295 7,100  Level FlightAware ADS-B (CYYZ)
Fri 06:59:28 AM 43.5489 -79.4703 216° Southwest 257 296 7,100  Level FlightAware ADS-B (CYYZ)
Fri 06:59:29 AM 43.5485 -79.4706 216° Southwest 257 296 7,100 400 Level FlightAware ADS-B (EPLB / LUZ)
Fri 06:59:43 AM 43.5344 -79.4845 216° Southwest 262 302 7,200 800 Climbing FlightAware ADS-B (CYYZ)
Fri 06:59:44 AM 43.5354 -79.4835 216° Southwest 232 267 7,300 2,400 Climbing FlightAware ADS-B
Fri 06:59:58 AM 43.5193 -79.4994 216° Southwest 262 302 7,800 2,483 Climbing FlightAware ADS-B (CYYZ)
Fri 07:00:13 AM 43.5051 -79.5132 216° Southwest 263 303 8,500 2,769 Climbing FlightAware ADS-B (CYYZ)
Fri 07:00:24 AM 43.4929 -79.5251 216° Southwest 265 305 9,000 2,800 Climbing FlightAware ADS-B (EPLB / LUZ)
Fri 07:00:28 AM 43.4893 -79.5287 216° Southwest 266 306 9,200 2,667 Climbing FlightAware ADS-B (CYYZ)
Fri 07:00:42 AM 43.4745 -79.5434 216° Southwest 269 310 9,800 2,625 Climbing FlightAware ADS-B (CYYZ)
Fri 07:00:44 AM 43.4760 -79.5418 216° Southwest 269 310 9,900 2,333 Climbing FlightAware ADS-B (CYKF)
Fri 07:01:00 AM 43.4567 -79.5610 215° Southwest 273 314 10,500 1,412 Climbing FlightAware ADS-B
Fri 07:01:18 AM 43.4377 -79.5797 216° Southwest 294 338 10,700 811 Climbing FlightAware ADS-B (CYYZ)
Fri 07:01:37 AM 43.4221 -79.5951 216° Southwest 312 359 11,000 1,241 Climbing FlightAware ADS-B (EPLB / LUZ)
Fri 07:01:47 AM 43.4030 -79.6140 216° Southwest 320 368 11,300 1,622 Climbing FlightAware ADS-B (CYYZ)
Fri 07:02:14 AM 43.3728 -79.6438 216° Southwest 339 390 12,000 1,600 Climbing FlightAware ADS-B
Fri 07:02:17 AM 43.3661 -79.6505 216° Southwest 339 390 12,100 2,364 Climbing FlightAware ADS-B (CYYZ)
Fri 07:02:47 AM 43.3269 -79.6862 207° Southwest 348 400 13,300 2,462 Climbing FlightAware ADS-B (CYYZ)
Fri 07:02:56 AM 43.3136 -79.6939 200° South 352 405 13,700 2,400 Climbing FlightAware ADS-B
Fri 07:03:07 AM 43.2952 -79.7008 191° South 360 414 14,100 2,211 Climbing FlightAware ADS-B (CYYZ)
Fri 07:03:15 AM 43.2825 -79.7033 187° South 362 417 14,400 2,710 Climbing FlightAware ADS-B
Fri 07:03:38 AM 43.2453 -79.7099 188° South 362 417 15,500 3,176 Climbing FlightAware ADS-B (CYYZ)
Fri 07:04:06 AM 43.2013 -79.7184 188° South 356 410 17,100 3,200 Climbing FlightAware ADS-B
Fri 07:04:08 AM 43.1980 -79.7189 188° South 356 410 17,100 2,813 Level FlightAware ADS-B (CYYZ)
Fri 07:04:38 AM 43.1468 -79.7286 188° South 356 410 18,600 3,000 Climbing FlightAware ADS-B (CYYZ)
Fri 07:04:44 AM 43.1361 -79.7305 188° South 357 411 18,900 2,200 Climbing FlightAware ADS-B
Fri 07:05:08 AM 43.0983 -79.7377 188° South 362 417 19,700 2,129 Climbing FlightAware ADS-B (CYYZ)
Fri 07:05:15 AM 43.0892 -79.7394 188° South 365 420 20,000 2,000 Climbing FlightAware ADS-B
Fri 07:05:38 AM 43.0479 -79.7473 189° South 372 428 20,700 1,846 Climbing FlightAware ADS-B (CYYZ)
Fri 07:05:54 AM 43.0181 -79.7530 188° South 380 437 21,200 1,600 Climbing FlightAware ADS-B
Fri 07:06:08 AM 42.9954 -79.7572 188° South 383 441 21,500 1,548 Climbing FlightAware ADS-B (CYYZ)
Fri 07:06:25 AM 42.9652 -79.7630 189° South 390 449 22,000 1,800 Climbing FlightAware ADS-B
Fri 07:06:38 AM 42.9412 -79.7682 190° South 395 455 22,400 1,935 Climbing FlightAware ADS-B (CYYZ)
Fri 07:06:56 AM 42.9216 -79.7726 189° South 401 461 23,000 1,400 Climbing FlightAware ADS-B (EPLB / LUZ)
Fri 07:07:08 AM 42.8870 -79.7792 185° South 407 468 23,100 1,610 Climbing FlightAware ADS-B (CYYZ)
Fri 07:07:37 AM 42.8303 -79.7841 184° South 409 471 24,100 2,000 Climbing FlightAware ADS-B (CYYZ)
Fri 07:08:08 AM 42.7728 -79.7887 184° South 410 472 25,100 1,789 Climbing FlightAware ADS-B (CYYZ)
Fri 07:08:34 AM 42.7224 -79.7929 184° South 415 478 25,800 1,655 Climbing FlightAware ADS-B
Fri 07:08:37 AM 42.7186 -79.7933 184° South 415 478 25,900 1,412 Climbing FlightAware ADS-B (CYYZ)
Fri 07:09:08 AM 42.6589 -79.7984 184° South 420 483 26,600 1,322 Climbing FlightAware ADS-B (CYYZ)
Fri 07:09:36 AM 42.6034 -79.8030 184° South 424 488 27,200 1,313 Climbing FlightAware ADS-B (CYYZ)
Fri 07:10:12 AM 42.5358 -79.8086 184° South 429 494 28,000 1,364 Climbing FlightAware ADS-B (CYYZ)
Fri 07:10:42 AM 42.4772 -79.8134 184° South 432 497 28,700 1,345 Climbing FlightAware ADS-B (CYYZ)
Fri 07:11:10 AM 42.4161 -79.8183 184° South 433 498 29,300 1,475 Climbing FlightAware ADS-B (CYYZ)
Fri 07:11:43 AM 42.3508 -79.8235 184° South 429 494 30,200 1,905 Climbing FlightAware ADS-B (CYYZ)
Fri 07:12:13 AM 42.2916 -79.8286 184° South 416 479 31,300 2,136 Climbing FlightAware ADS-B (CYYZ)
Fri 07:12:42 AM 42.2348 -79.8334 184° South 407 468 32,300 1,800 Climbing FlightAware ADS-B (CYYZ)
Fri 07:13:13 AM 42.1798 -79.8381 184° South 402 463 33,100 1,400 Climbing FlightAware ADS-B (CYYZ)
Fri 07:13:42 AM 42.1238 -79.8429 184° South 402 463 33,700 1,017 Climbing FlightAware ADS-B (CYYZ)
Fri 07:14:12 AM 42.0691 -79.8475 184° South 402 463 34,100 885 Climbing FlightAware ADS-B (CYYZ)
Fri 07:14:43 AM 42.0105 -79.8484 174° South 416 479 34,600 1,000 Climbing FlightAware ADS-B (CYYZ)
Fri 07:15:12 AM 41.9602 -79.8387 171° South 418 481 35,100 1,174 Climbing FlightAware ADS-B (CYYZ)
Fri 07:15:29 AM 41.9312 -79.8329 171° South 419 482 35,500 1,102 Climbing FlightAware ADS-B (EPLB / LUZ)
Fri 07:16:01 AM 41.8606 -79.8187 172° South 418 481 36,000 252 Climbing FlightAware ADS-B (EPLB / LUZ)
Fri 07:17:28 AM 41.7137 -79.7888 172° South 419 482 36,000  Level FlightAware ADS-B (EPLB / LUZ)
Fri 07:18:36 AM 41.5634 -79.7586 171° South 419 482 36,000  Level FlightAware ADS-B (CYYZ)
Fri 07:19:44 AM 41.4350 -79.7330 172° South 419 482 36,000  Level FlightAware ADS-B (EPLB / LUZ)
Fri 07:21:00 AM 41.2885 -79.7041 172° South 419 482 36,000  Level FlightAware ADS-B (EPLB / LUZ)
Fri 07:23:12 AM 41.0435 -79.6608 184° South 404 465 36,000  Level FlightAware ADS-B (EPLB / LUZ)
Fri 07:23:43 AM 40.9791 -79.6693 189° South 398 458 36,000  Level FlightAware ADS-B (EPLB / LUZ)
Fri 07:24:36 AM 40.8852 -79.6899 190° South 399 459 36,000  Level FlightAware ADS-B (EPLB / LUZ)
Fri 07:25:12 AM 40.8447 -79.6989 190° South 400 460 36,000  Level FlightAware ADS-B (EPLB / LUZ)
Fri 07:26:14 AM 40.7184 -79.7269 189° South 401 461 36,000  Level FlightAware ADS-B (EPLB / LUZ)
Fri 07:28:05 AM 40.5003 -79.7740 189° South 404 465 36,000  Level FlightAware ADS-B
Fri 07:28:54 AM 40.4090 -79.7937 189° South 402 463 36,000  Level FlightAware ADS-B (WMSA / SZB)
Fri 07:29:27 AM 40.3862 -79.7986 189° South 407 468 36,000  Level FlightAware ADS-B (WMSA / SZB)
Fri 07:30:02 AM 40.3003 -79.8170 189° South 407 468 36,000  Level FlightAware ADS-B (WMSA / SZB)
Fri 07:30:35 AM 40.2667 -79.8242 189° South 408 470 36,000  Level FlightAware ADS-B (WMSA / SZB)
Fri 07:33:13 AM 40.0195 -79.8770 189° South 411 473 36,000  Level FlightAware ADS-B (WMSA / SZB)
Fri 07:33:44 AM 39.8886 -79.9075 189° South 412 474 36,000  Level Washington Center
Fri 07:34:20 AM 39.8222 -79.9203 188° South 412 474 36,000  Level Cleveland Center
Fri 07:35:22 AM 39.7078 -79.9442 189° South 412 474 36,000  Level Cleveland Center
Fri 07:36:23 AM 39.5692 -79.9733 189° South 415 478 36,000  Level Cleveland Center
Fri 07:37:25 AM 39.4531 -79.9953 188° South 420 483 36,000  Level Cleveland Center
Fri 07:38:27 AM 39.3364 -80.0194 189° South 422 486 36,000  Level Cleveland Center
Fri 07:39:28 AM 39.2217 -80.0433 189° South 421 484 36,000  Level Cleveland Center
Fri 07:40:30 AM 39.1050 -80.0681 189° South 421 484 36,000  Level Cleveland Center
Fri 07:41:32 AM 38.9869 -80.0892 188° South 427 491 36,000  Level Cleveland Center
Fri 07:42:33 AM 38.8672 -80.1022 185° South 433 498 36,000 244 Level Cleveland Center
Fri 07:43:35 AM 38.7531 -80.1419 195° South 423 487 36,500 629 Climbing Cleveland Center
Fri 07:44:37 AM 38.6150 -80.1900 195° South 428 493 37,300 683 Climbing Cleveland Center
Fri 07:45:38 AM 38.4986 -80.2292 195° South 431 496 37,900 341 Climbing Cleveland Center
Fri 07:46:40 AM 38.3806 -80.2725 196° South 438 504 38,000 48 Climbing Cleveland Center
Fri 07:47:42 AM 38.2636 -80.3131 195° South 437 503 38,000  Level Cleveland Center
Fri 07:48:43 AM 38.1267 -80.3592 195° South 437 503 38,000  Level Cleveland Center
Fri 07:49:44 AM 38.0161 -80.4047 198° South 440 506 38,000  Level Washington Center
Fri 07:50:44 AM 37.9125 -80.4403 195° South 440 506 38,000  Level Washington Center
Fri 07:51:45 AM 37.7961 -80.4800 195° South 440 506 38,000  Level Washington Center
Fri 07:52:44 AM 37.6797 -80.5197 195° South 440 506 38,000  Level Washington Center
Fri 07:54:39 AM 37.4528 -80.5936 194° South 447 514 38,000  Level Atlanta Center
Fri 07:55:39 AM 37.3269 -80.6356 195° South 447 514 38,000  Level Atlanta Center
Fri 07:56:39 AM 37.2111 -80.6744 195° South 442 509 38,000  Level Atlanta Center
Fri 07:57:39 AM 37.0933 -80.7133 195° South 442 509 38,000  Level Atlanta Center
Fri 07:58:39 AM 36.9686 -80.7292 186° South 442 509 38,000  Level Atlanta Center
Fri 07:59:39 AM 36.8606 -80.7414 185° South 442 509 38,000  Level Atlanta Center
Fri 08:00:39 AM 36.7461 -80.7486 183° South 436 502 38,000  Level Atlanta Center
Fri 08:01:39 AM 36.6256 -80.7614 185° South 431 496 38,000  Level Atlanta Center
Fri 08:02:39 AM 36.5050 -80.7742 185° South 431 496 38,000  Level Atlanta Center
Fri 08:03:39 AM 36.3822 -80.7894 186° South 436 502 38,000  Level Atlanta Center
Fri 08:04:39 AM 36.2639 -80.8019 185° South 442 509 38,000  Level Atlanta Center
Fri 08:05:39 AM 36.1453 -80.8144 185° South 442 509 38,000  Level Atlanta Center
Fri 08:06:39 AM 36.0289 -80.8267 185° South 437 503 38,000  Level Atlanta Center
Fri 08:07:39 AM 35.9103 -80.8392 185° South 432 497 38,000  Level Atlanta Center
Fri 08:08:39 AM 35.7917 -80.8514 185° South 432 497 38,000  Level Atlanta Center
Fri 08:09:39 AM 35.6750 -80.8636 185° South 426 490 38,000  Level Atlanta Center
Fri 08:10:39 AM 35.5544 -80.8761 185° South 426 490 38,000  Level Atlanta Center
Fri 08:11:39 AM 35.4339 -80.8908 186° South 431 496 38,000  Level Atlanta Center
Fri 08:13:53 AM 35.1622 -80.9222 185° South 433 498 38,000  Level Jacksonville Center
Fri 08:19:39 AM 34.4361 -80.9949 185° South 445 512 38,000  Level FlightAware ADS-B
Fri 08:20:21 AM 34.3498 -81.0038 185° South 443 510 38,000  Level FlightAware ADS-B
Fri 08:20:51 AM 34.2898 -81.0098 185° South 443 510 38,000  Level FlightAware ADS-B
Fri 08:21:22 AM 34.2257 -81.0163 185° South 443 510 38,000  Level FlightAware ADS-B
Fri 08:22:07 AM 34.1329 -81.0259 185° South 443 510 38,000  Level FlightAware ADS-B
Fri 08:22:40 AM 34.0670 -81.0326 185° South 445 512 38,000  Level FlightAware ADS-B
Fri 08:23:53 AM 33.9208 -81.0456 185° South 445 512 38,000  Level Jacksonville Center
Fri 08:24:53 AM 33.8025 -81.0781 193° South 440 506 38,000  Level Jacksonville Center
Fri 08:25:53 AM 33.7053 -81.1350 206° Southwest 440 506 38,000  Level Jacksonville Center
Fri 08:26:53 AM 33.5933 -81.1897 202° Southwest 440 506 38,000  Level Jacksonville Center
Fri 08:27:53 AM 33.4836 -81.2514 205° Southwest 440 506 38,000  Level Jacksonville Center
Fri 08:28:53 AM 33.3781 -81.3206 209° Southwest 435 501 38,000  Level Jacksonville Center
Fri 08:29:53 AM 33.2744 -81.3869 208° Southwest 430 495 38,000  Level Jacksonville Center
Fri 08:30:53 AM 33.1689 -81.4583 210° Southwest 430 495 38,000 -50 Level Jacksonville Center
Fri 08:31:53 AM 33.0653 -81.5269 209° Southwest 435 501 37,900  Descending Jacksonville Center
Fri 08:32:53 AM 32.9614 -81.5953 209° Southwest 435 501 38,000 50 Climbing Jacksonville Center
Fri 08:33:53 AM 32.8578 -81.6636 209° Southwest 435 501 38,000  Level Jacksonville Center
Fri 08:34:53 AM 32.7478 -81.7292 207° Southwest 440 506 38,000  Level Jacksonville Center
Fri 08:35:53 AM 32.6336 -81.8097 211° Southwest 433 498 38,000  Level Jacksonville Center
Fri 08:36:53 AM 32.5381 -81.8700 208° Southwest 438 504 38,000  Level Jacksonville Center
Fri 08:37:53 AM 32.4219 -81.9450 209° Southwest 438 504 38,000  Level Jacksonville Center
Fri 08:38:53 AM 32.3158 -82.0150 209° Southwest 438 504 38,000  Level Jacksonville Center
Fri 08:39:53 AM 32.2181 -82.0747 207° Southwest 438 504 38,000  Level Jacksonville Center
Fri 08:40:53 AM 32.1017 -82.1494 209° Southwest 438 504 38,000  Level Jacksonville Center
Fri 08:41:53 AM 32.0081 -82.2114 209° Southwest 438 504 38,000  Level Jacksonville Center
Fri 08:42:53 AM 31.8894 -82.2833 207° Southwest 437 503 38,000  Level Jacksonville Center
Fri 08:43:53 AM 31.7978 -82.3425 209° Southwest 437 503 38,000  Level Jacksonville Center
Fri 08:44:53 AM 31.6917 -82.4092 208° Southwest 437 503 38,000  Level Jacksonville Center
Fri 08:45:53 AM 31.5856 -82.4756 208° Southwest 437 503 38,000  Level Jacksonville Center
Fri 08:46:53 AM 31.5042 -82.5708 225° Southwest 432 497 38,000  Level Jacksonville Center
Fri 08:47:53 AM 31.4356 -82.6928 237° Southwest 408 470 38,000  Level Jacksonville Center
Fri 08:48:53 AM 31.3772 -82.8097 240° Southwest 415 478 38,000  Level Jacksonville Center
Fri 08:49:53 AM 31.3208 -82.9267 241° Southwest 424 488 38,000 -435 Level Jacksonville Center
Fri 08:55:47 AM 30.7502 -83.3475 207° Southwest 409 471 35,000 -313 Descending FlightAware ADS-B (KONZ)
Fri 08:59:28 AM 30.3771 -83.5692 207° Southwest 413 475 35,000  Level FlightAware ADS-B (KONZ)
Fri 09:00:09 AM 30.3072 -83.6105 207° Southwest 412 474 35,000  Level FlightAware ADS-B (KONZ)
Fri 09:00:48 AM 30.2405 -83.6498 207° Southwest 412 474 35,000  Level FlightAware ADS-B (KONZ)
Fri 09:01:35 AM 30.1610 -83.6965 207° Southwest 412 474 35,000  Level FlightAware ADS-B (KONZ)
Fri 09:02:08 AM 30.1029 -83.7294 204° Southwest 413 475 35,000  Level FlightAware ADS-B (KONZ)
Fri 09:02:22 AM 30.0761 -83.7367 185° South 426 490 35,000  Level FlightAware ADS-B (KONZ)
Fri 09:02:53 AM 30.0236 -83.7347 185° South 412 474 35,000 -66 Level Jacksonville Center
Fri 09:03:53 AM 29.9047 -83.7025 167° South 411 473 34,900 -50 Descending Jacksonville Center
Fri 09:04:53 AM 29.7861 -83.6681 166° South 424 488 34,900 -100 Level Jacksonville Center
Fri 09:05:53 AM 29.6672 -83.6383 168° South 429 494 34,700 -700 Descending Jacksonville Center
Fri 09:06:53 AM 29.5483 -83.6039 166° South 434 499 33,500 -1,950 Descending Jacksonville Center
Fri 09:07:53 AM 29.4297 -83.5697 166° South 434 499 30,800 -2,450 Descending Jacksonville Center
Fri 09:08:53 AM 29.3086 -83.5381 167° South 439 505 28,600 -1,950 Descending Jacksonville Center
Fri 09:09:53 AM 29.1961 -83.4967 162° South 429 494 26,900 -1,850 Descending Jacksonville Center
Fri 09:10:53 AM 29.0964 -83.4319 150° Southeast 421 484 24,900 -1,900 Descending Jacksonville Center
Fri 09:11:53 AM 28.9942 -83.3675 151° Southeast 416 479 23,100 -1,750 Descending Jacksonville Center
Fri 09:12:53 AM 28.8986 -83.3053 150° Southeast 411 473 21,400 -1,650 Descending Jacksonville Center
Fri 09:13:53 AM 28.8047 -83.2481 152° Southeast 400 460 19,800 -1,600 Descending Jacksonville Center
Fri 09:14:53 AM 28.7172 -83.1886 149° Southeast 394 453 18,200 -1,500 Descending Jacksonville Center
Fri 09:15:53 AM 28.6297 -83.1361 152° Southeast 371 427 16,800 -1,469 Descending Jacksonville Center
Fri 09:17:20 AM 28.5167 -83.0667 152° Southeast 333 383 14,600 -1,459 Descending Tampa TRACON
Fri 09:18:21 AM 28.4333 -83.0167 152° Southeast 322 371 13,200 -1,565 Descending Tampa TRACON
Fri 09:19:15 AM 28.3667 -82.9667 147° Southeast 313 360 11,600 -1,789 Descending Tampa TRACON
Fri 09:20:15 AM 28.3000 -82.9000 139° Southeast 314 361 9,800 -1,700 Descending Tampa TRACON
Fri 09:21:15 AM 28.2333 -82.8500 147° Southeast 297 342 8,200 -1,750 Descending Tampa TRACON
Fri 09:22:15 AM 28.1667 -82.8000 147° Southeast 277 319 6,300 -1,400 Descending Tampa TRACON
Fri 09:23:15 AM 28.1000 -82.7500 147° Southeast 248 285 5,400 -950 Descending Tampa TRACON
Fri 09:24:15 AM 28.0500 -82.7333 164° South 173 199 4,400 -1,190 Descending Tampa TRACON
Fri 09:25:16 AM 28.0333 -82.6833 111° Southeast 165 190 3,000 -1,190 Descending Tampa TRACON
Fri 09:26:16 AM 28.0000 -82.6667 156° South 135 155 2,000 -1,050 Descending Tampa TRACON
Fri 09:27:16 AM 27.9667 -82.6833 204° Southwest 133 153 900 -1,100 Descending Tampa TRACON

Login

Don't have an account? Register now (free) for customized features, flight alerts, and more!